Wind_Speed
1 1 1 0 1 1 1 1 1 1 1 1 1 2 1 2 2 2 2 2 2 3 2 3 3 3 4 4 4 4 4 4 4 4 4 3 3 3 3 3 3 3 4 5 5 6 6 6 7
2 2 3 2 2 3 3 2 1 1 1 2 2 2 3 2 2 2 2 2 2 2 2 2 3 3 4 4 4 4 4 4 4 4 4 3 3 3 3 3 3 4 4 5 6 6 6 7 7
4 3 4 4 4 4 3 3 2 1 2 3 3 3 3 2 2 2 1 1 2 2 2 2 3 3 4 4 4 4 4 4 4 4 3 4 4 4 4 3 4 4 5 5 6 6 7 7 7
4 4 5 5 5 5 4 4 3 3 3 4 4 3 3 3 3 2 1 1 1 1 2 2 2 3 3 4 4 5 5 4 4 4 4 4 4 4 4 4 4 4 5 5 6 6 8 9 8
5 5 6 6 6 5 5 4 4 4 4 4 4 4 4 4 4 3 2 1 1 1 2 2 2 3 3 4 4 4 4 5 5 5 5 5 5 5 5 4 4 4 5 5 6 7 7 9 9
6 6 7 7 7 6 5 5 4 4 4 4 4 4 4 4 4 4 3 2 1 0 1 2 3 3 3 4 4 4 4 5 5 5 5 6 5 6 5 5 4 5 5 5 6 7 7 8 9
7 7 7 7 7 7 6 5 4 4 5 5 5 5 4 4 4 4 3 2 2 1 1 2 3 3 3 3 4 4 4 5 5 6 6 6 6 6 5 5 5 5 5 5 6 6 7 8 9
8 8 8 8 7 7 7 6 5 5 5 5 5 5 4 4 3 3 3 2 2 2 1 1 2 3 3 3 3 4 5 5 5 6 7 7 7 6 6 6 5 5 5 5 5 6 7 8 9
9 9 8 8 8 8 8 7 5 5 5 5 5 4 3 3 3 3 3 2 2 1 1 1 2 2 3 3 3 4 5 6 6 7 8 8 7 7 7 7 6 5 4 4 4 5 6 7 8
10 10 9 9 9 9 8 7 6 5 6 5 5 5 4 3 3 3 4 3 2 1 1 0 1 2 3 2 3 4 5 6 7 8 8 8 8 8 8 7 6 5 4 3 3 3 4 6 7
10 10 10 10 9 9 8 7 6 6 6 6 6 5 4 3 3 3 3 3 3 2 2 1 1 2 2 2 3 4 5 6 7 8 8 8 8 8 8 8 6 5 4 2 1 2 3 5 7
11 11 11 10 9 9 7 7 7 6 6 7 6 6 5 4 4 5 4 4 4 3 2 2 1 1 2 2 3 4 5 6 7 8 8 8 8 8 9 8 7 5 4 3 1 1 3 5 6
11 11 10 9 9 9 8 7 8 8 7 7 6 5 6 6 5 5 5 5 4 4 3 2 1 1 2 2 2 4 5 6 7 7 8 8 8 9 9 8 7 6 5 4 2 1 2 4 5
11 11 10 10 9 9 9 8 8 9 7 7 6 6 6 6 5 5 5 4 4 4 4 3 2 1 1 2 2 3 5 6 6 7 8 8 8 9 8 8 8 7 6 5 4 3 2 4 4
11 10 10 10 10 9 9 9 9 8 8 8 7 6 6 6 5 5 5 4 4 4 4 3 2 1 1 1 2 3 5 5 6 7 8 8 8 8 9 8 8 7 7 6 5 4 2 3 3
10 10 10 10 10 10 10 9 8 8 8 8 8 8 7 7 6 7 6 4 4 4 4 4 3 2 1 1 2 3 4 5 6 7 7 8 8 8 8 8 8 8 7 6 5 4 3 3 3
10 10 10 10 11 11 10 9 9 8 8 8 8 8 8 7 7 7 6 5 4 4 3 4 4 3 1 1 2 2 3 4 5 6 7 7 8 8 8 8 8 8 7 7 6 5 4 4 3
10 11 10 11 10 10 10 9 9 9 8 8 8 8 8 7 7 7 7 6 6 5 4 3 4 3 1 0 1 1 3 4 5 6 6 7 7 8 8 8 8 7 7 7 6 5 5 4 3
11 10 9 9 9 9 9 9 9 9 9 9 8 8 8 8 7 7 7 6 6 5 5 4 5 3 2 1 0 1 2 3 4 5 6 6 7 7 7 7 8 8 7 7 6 6 5 5 4
10 9 9 8 9 9 8 8 8 9 9 9 9 9 8 7 7 7 8 7 7 6 6 6 5 5 4 2 1 0 2 2 3 4 5 5 6 6 6 7 7 7 7 7 6 6 5 4 4
9 10 9 8 8 8 8 8 9 9 9 9 9 9 8 7 7 7 7 8 8 7 7 7 6 6 5 3 2 1 1 2 3 4 5 5 5 6 6 7 7 7 7 7 7 6 5 4 4
9 9 9 9 9 8 8 7 8 8 8 9 10 10 9 8 7 7 8 8 8 7 7 7 7 7 6 4 3 2 1 1 2 3 4 4 5 5 6 6 7 7 6 6 6 6 5 5 4
9 9 9 8 7 8 8 7 7 7 8 8 9 10 10 8 7 7 8 9 9 8 8 8 8 8 7 5 4 3 2 1 1 3 3 3 4 5 5 6 6 6 6 6 6 5 5 5 5
9 9 8 7 7 8 8 8 6 6 7 7 9 10 10 9 8 8 9 9 9 8 8 8 8 8 7 6 6 4 3 2 1 1 2 2 3 4 5 5 6 6 7 7 6 6 6 6 5
8 8 8 8 7 7 8 7 6 6 7 8 8 9 9 9 9 8 9 9 9 9 9 9 8 7 7 6 6 5 4 3 2 0 1 2 3 4 5 5 5 5 6 6 6 6 6 6 5
8 8 8 8 8 7 7 7 7 7 8 8 8 8 9 9 9 9 9 9 9 8 9 9 8 7 7 7 7 6 5 4 3 2 2 1 1 2 3 4 4 5 5 5 5 5 5 5 4
9 7 8 9 8 8 7 7 8 8 8 8 8 8 8 9 9 9 9 9 9 9 8 9 8 8 7 8 8 7 6 5 4 3 3 2 1 1 2 2 3 4 4 4 4 4 4 4 3
10 8 9 9 9 7 7 7 7 7 7 8 8 8 8 8 9 10 10 9 10 10 9 8 8 8 8 8 8 8 7 6 5 5 4 3 2 2 2 2 3 3 4 4 4 4 4 4 4
11 10 10 9 9 9 8 6 6 6 7 7 8 8 9 8 9 9 10 10 10 10 9 9 9 9 9 9 9 8 7 7 7 6 5 4 3 3 3 3 3 3 4 4 4 4 5 5 5
11 11 10 10 10 10 8 7 7 7 7 8 8 9 9 9 9 9 10 10 10 10 10 9 10 10 9 9 10 9 9 9 8 7 7 6 6 6 6 6 5 5 5 5 6 6 6 6 6
Wind_Direction
244 218 212 258 303 303 311 316 25 49 0 325 315 318 342 353 351 8 28 39 37 39 56 54 39 32 25 16 9 9 3 355 349 343 339 340 336 325 310 299 281 259 253 248 242 236 230 224 217
266 251 251 278 288 287 291 307 332 339 300 293 300 303 310 320 327 340 358 18 30 37 56 43 29 23 17 15 13 10 5 356 351 346 339 339 331 320 310 297 282 264 259 250 243 237 230 224 218
256 253 255 263 268 270 280 308 309 281 286 294 292 294 307 318 304 307 322 352 32 46 45 24 22 19 16 15 14 13 10 4 2 357 348 341 335 327 317 302 288 275 266 255 245 237 230 226 220
252 249 254 255 261 267 284 297 293 294 289 291 287 288 292 293 290 280 289 332 24 45 37 31 19 19 12 8 6 5 8 8 5 360 350 341 336 328 315 303 291 279 269 258 247 238 231 225 221
249 248 249 255 262 266 272 286 290 290 283 287 292 286 281 287 286 275 266 290 355 49 40 34 19 17 14 9 8 10 15 12 10 6 356 348 341 332 321 311 297 284 271 257 246 238 232 225 222
242 245 252 259 261 266 273 280 285 280 281 279 290 292 286 283 279 266 260 259 280 351 13 20 15 8 6 6 11 12 13 13 10 5 359 353 349 340 333 323 308 290 275 260 249 241 233 225 222
242 246 253 258 264 271 278 281 289 284 275 276 280 287 289 288 275 259 253 250 263 274 328 2 16 9 4 4 12 17 16 14 10 4 359 356 353 346 340 331 315 297 281 265 253 244 234 227 222
248 249 254 258 263 268 275 281 289 281 269 274 273 276 281 289 283 254 236 238 249 247 274 3 11 5 360 1 16 21 19 14 12 8 4 2 359 355 350 338 327 313 295 275 255 244 235 228 223
251 252 253 257 264 268 271 275 283 276 271 270 269 268 283 283 282 251 218 217 218 237 230 339 16 7 6 12 27 20 16 13 14 13 9 5 1 358 353 343 335 326 310 286 261 242 233 224 219
252 254 254 258 264 266 271 274 276 275 280 273 269 263 271 273 269 248 230 212 212 212 195 27 33 11 11 12 19 13 12 11 10 11 7 3 1 360 357 351 342 334 327 307 274 236 222 212 206
257 258 258 259 263 265 270 272 270 265 269 271 267 264 263 255 254 242 219 201 202 197 196 167 38 10 12 10 10 12 13 11 10 9 5 5 6 1 358 356 353 351 357 353 303 216 197 195 196
262 261 263 260 261 263 268 267 262 259 260 259 261 263 255 245 248 242 223 211 202 198 202 193 180 24 18 11 12 14 12 13 13 10 10 10 10 6 6 7 9 12 17 27 44 171 187 186 189
264 265 264 260 263 264 266 264 259 255 255 254 252 259 253 244 246 240 231 235 218 203 199 196 192 2 13 14 10 13 15 16 19 16 15 14 13 13 14 18 22 25 29 38 53 99 167 174 179
262 263 262 257 255 260 265 265 261 253 250 252 250 249 247 246 250 236 227 233 217 206 201 204 205 288 0 20 11 6 12 18 20 18 16 16 16 18 21 24 28 33 41 52 69 90 134 170 181
259 261 262 259 254 258 263 263 262 255 249 253 252 244 235 236 241 232 221 224 232 217 201 197 208 251 342 13 17 11 14 17 19 20 19 21 23 25 27 28 34 40 49 56 68 88 117 150 172
261 257 256 254 254 261 265 265 257 252 247 247 249 245 239 235 231 223 220 227 229 218 208 208 214 224 272 358 6 12 19 22 23 24 25 28 31 32 31 33 38 46 52 55 61 72 83 108 140
259 258 254 255 255 259 262 260 255 249 245 245 245 244 235 235 230 224 224 228 223 220 217 214 210 220 234 342 6 16 23 23 25 27 29 35 38 36 36 37 40 47 53 57 61 72 85 99 116
262 259 258 257 254 250 252 250 250 241 239 244 246 245 239 236 231 227 229 228 226 230 224 217 206 207 220 280 359 19 23 24 26 28 30 38 40 40 40 41 43 45 50 54 60 69 81 87 106
263 262 258 255 251 247 249 247 245 237 237 243 242 242 239 232 230 225 225 226 225 224 221 222 208 208 213 222 293 12 20 27 30 31 32 37 44 44 43 42 46 47 50 54 59 66 70 73 89
262 262 259 250 247 253 250 243 241 238 237 241 238 235 235 231 229 223 220 221 222 222 221 220 213 214 211 204 209 12 17 24 24 29 30 39 46 46 45 44 47 49 52 54 56 62 66 68 76
260 262 257 253 247 254 254 240 237 237 239 238 232 229 227 225 220 223 220 219 222 222 219 215 213 215 207 202 210 222 11 20 20 23 26 37 42 43 48 48 49 52 55 57 56 58 59 62 67
255 257 256 259 251 249 247 242 240 237 237 231 223 219 219 215 215 221 222 222 219 215 214 214 214 214 209 207 211 210 261 10 23 21 28 43 43 43 47 48 50 53 55 56 53 56 56 57 61
253 252 259 262 244 243 245 248 243 235 227 222 215 212 210 209 212 217 216 216 215 211 212 215 213 212 214 215 213 219 236 250 36 36 40 51 46 46 49 49 48 49 53 53 51 52 51 53 60
248 249 253 248 238 239 240 244 241 233 222 216 211 210 209 209 211 212 214 215 213 211 213 212 211 213 215 217 220 223 225 217 167 49 47 57 56 52 52 50 46 47 50 51 50 50 47 51 56
244 244 249 245 238 242 238 239 232 233 219 215 212 207 210 212 212 212 210 210 212 212 212 212 216 214 214 215 218 216 214 208 200 170 87 76 61 56 48 48 46 43 45 46 45 47 42 47 50
245 241 245 248 245 242 241 236 227 224 217 211 208 204 205 212 213 212 207 208 210 207 210 216 218 216 217 215 214 212 213 207 206 198 159 116 68 44 33 35 39 39 41 42 39 36 33 34 36
236 238 240 242 247 244 242 234 229 222 220 217 213 205 204 203 204 206 207 208 211 213 215 219 217 217 218 217 213 213 214 209 211 200 199 211 244 320 356 8 13 19 21 21 23 26 23 16 16
232 238 240 240 242 244 238 231 228 221 223 220 215 205 201 199 203 201 202 209 214 219 222 222 219 219 216 217 218 214 214 220 221 213 220 236 248 269 300 329 339 350 353 352 348 357 358 355 353
233 235 239 242 243 246 236 234 231 228 225 222 215 204 201 202 204 205 207 213 219 220 220 223 224 219 218 218 217 216 216 222 220 217 225 235 250 262 275 290 298 314 322 323 324 326 329 328 324
231 234 240 242 244 250 246 237 235 234 223 220 212 205 204 204 208 210 212 215 220 220 222 227 227 223 225 224 222 223 227 226 221 226 234 241 250 260 269 273 280 289 295 299 302 305 309 311 311
Height
5900 5900 5900 5901 5901 5901 5900 5899 5899 5899 5899 5898 5898 5898 5898 5898 5899 5900 5898 5896 5895 5894 5894 5893 5893 5892 5892 5891 5890 5889 5888 5887 5886 5885 5884 5883 5882 5881 5881 5880 5880 5879 5879 5879 5879 5879 5879 5880 5881
5899 5900 5900 5900 5900 5900 5900 5899 5899 5899 5899 5898 5898 5898 5898 5897 5897 5897 5896 5895 5895 5894 5894 5893 5893 5892 5892 5891 5890 5889 5888 5887 5886 5884 5883 5883 5882 5881 5880 5879 5879 5878 5878 5878 5878 5878 5878 5879 5880
5899 5899 5900 5899 5899 5899 5899 5899 5898 5898 5898 5898 5897 5897 5897 5897 5897 5896 5896 5895 5895 5894 5893 5893 5893 5892 5891 5891 5890 5889 5887 5886 5885 5884 5883 5882 5881 5880 5879 5878 5877 5877 5877 5877 5876 5877 5877 5878 5878
5898 5899 5899 5899 5898 5898 5898 5898 5897 5897 5897 5897 5897 5897 5896 5896 5896 5896 5895 5895 5894 5894 5893 5893 5892 5892 5891 5890 5890 5888 5887 5886 5885 5884 5883 5881 5880 5879 5878 5877 5876 5876 5875 5875 5875 5875 5876 5876 5877
5896 5897 5897 5897 5897 5897 5897 5896 5896 5896 5896 5896 5896 5896 5895 5896 5895 5894 5894 5894 5894 5894 5893 5893 5892 5892 5891 5890 5889 5888 5887 5886 5885 5884 5882 5881 5879 5878 5877 5876 5875 5874 5874 5874 5874 5874 5874 5875 5875
5895 5896 5896 5895 5896 5896 5896 5896 5895 5895 5895 5895 5895 5895 5895 5895 5894 5893 5894 5894 5894 5893 5893 5893 5892 5892 5891 5890 5889 5888 5887 5886 5885 5883 5882 5880 5879 5877 5876 5875 5874 5873 5873 5872 5872 5872 5872 5873 5874
5894 5894 5894 5894 5894 5894 5895 5894 5894 5894 5894 5894 5894 5894 5893 5893 5893 5893 5893 5893 5893 5893 5893 5892 5892 5892 5891 5890 5889 5888 5887 5886 5884 5883 5881 5880 5878 5877 5875 5874 5873 5872 5871 5871 5871 5871 5871 5871 5872
5892 5893 5893 5893 5893 5893 5893 5893 5893 5893 5893 5893 5893 5893 5893 5893 5893 5892 5892 5892 5892 5892 5893 5892 5892 5891 5891 5890 5889 5888 5887 5886 5884 5883 5881 5879 5878 5876 5875 5873 5872 5870 5869 5869 5869 5869 5869 5870 5871
5890 5892 5891 5891 5891 5891 5891 5891 5892 5891 5892 5891 5891 5892 5892 5892 5891 5892 5892 5892 5892 5892 5892 5892 5891 5891 5890 5890 5889 5888 5887 5886 5884 5883 5881 5879 5877 5876 5874 5872 5870 5869 5868 5867 5867 5867 5867 5868 5869
5888 5889 5889 5890 5889 5889 5889 5890 5890 5890 5890 5890 5890 5890 5890 5891 5891 5891 5891 5891 5892 5892 5892 5892 5891 5891 5890 5889 5889 5888 5887 5886 5884 5883 5881 5879 5877 5875 5873 5871 5869 5868 5867 5866 5866 5866 5866 5867 5868
5886 5887 5887 5887 5887 5887 5888 5888 5888 5888 5888 5889 5889 5889 5889 5889 5890 5890 5890 5891 5891 5892 5892 5891 5891 5891 5890 5890 5889 5888 5887 5886 5884 5883 5881 5879 5877 5875 5873 5871 5869 5867 5866 5865 5865 5865 5865 5866 5867
5884 5884 5885 5885 5884 5885 5886 5886 5886 5887 5887 5887 5888 5888 5888 5888 5889 5889 5889 5890 5890 5891 5892 5891 5891 5891 5890 5890 5889 5888 5887 5886 5884 5882 5880 5879 5877 5874 5872 5870 5868 5867 5865 5865 5864 5864 5865 5865 5866
5882 5882 5882 5882 5882 5883 5883 5884 5884 5884 5885 5885 5886 5887 5887 5887 5887 5888 5888 5889 5889 5890 5891 5891 5891 5891 5890 5890 5889 5888 5887 5886 5884 5882 5880 5878 5877 5874 5872 5870 5868 5867 5865 5865 5864 5864 5864 5865 5866
5879 5879 5880 5880 5880 5881 5881 5882 5882 5882 5883 5884 5884 5885 5885 5886 5886 5886 5887 5888 5888 5890 5890 5891 5891 5891 5890 5890 5889 5888 5887 5885 5884 5882 5880 5878 5876 5874 5872 5870 5869 5867 5866 5865 5864 5864 5864 5865 5866
5877 5877 5877 5878 5878 5879 5879 5880 5880 5880 5881 5881 5882 5883 5884 5884 5885 5885 5886 5887 5887 5888 5889 5890 5890 5890 5890 5889 5889 5888 5886 5885 5883 5882 5880 5878 5876 5875 5873 5871 5869 5867 5866 5865 5865 5865 5865 5865 5866
5875 5875 5875 5876 5876 5876 5878 5878 5878 5879 5879 5880 5880 5881 5882 5883 5883 5884 5885 5886 5886 5887 5888 5889 5889 5889 5889 5889 5888 5887 5886 5885 5883 5882 5880 5878 5877 5875 5873 5872 5870 5868 5867 5866 5866 5865 5865 5865 5866
5873 5873 5873 5873 5873 5874 5875 5875 5876 5876 5877 5878 5879 5879 5880 5881 5882 5883 5884 5885 5886 5886 5887 5888 5888 5889 5889 5888 5888 5887 5886 5885 5883 5882 5880 5878 5877 5876 5874 5872 5871 5870 5868 5868 5867 5866 5866 5866 5866
5870 5870 5870 5870 5871 5871 5872 5872 5873 5874 5875 5876 5877 5878 5878 5879 5880 5881 5882 5883 5884 5885 5886 5886 5887 5888 5888 5888 5887 5887 5886 5884 5883 5882 5880 5879 5878 5876 5875 5873 5872 5871 5870 5869 5868 5867 5867 5867 5867
5867 5868 5868 5868 5868 5869 5869 5870 5871 5871 5873 5873 5875 5876 5876 5877 5878 5879 5881 5882 5883 5884 5884 5885 5886 5887 5887 5887 5887 5886 5885 5884 5883 5882 5881 5879 5878 5877 5876 5875 5873 5872 5871 5870 5869 5869 5868 5868 5868
5865 5865 5866 5866 5866 5866 5867 5868 5868 5869 5870 5871 5872 5874 5875 5875 5876 5878 5879 5880 5881 5882 5883 5884 5885 5885 5886 5886 5886 5886 5885 5884 5883 5882 5881 5880 5879 5878 5877 5876 5874 5874 5873 5872 5871 5870 5869 5869 5869
5863 5863 5864 5864 5864 5864 5865 5866 5866 5867 5868 5869 5870 5871 5873 5874 5875 5876 5877 5879 5880 5881 5882 5883 5884 5884 5885 5885 5885 5885 5885 5884 5883 5882 5882 5881 5880 5879 5878 5877 5876 5875 5874 5873 5872 5871 5870 5870 5869
5861 5861 5861 5862 5862 5862 5863 5864 5864 5864 5865 5866 5868 5869 5870 5872 5873 5874 5875 5877 5878 5879 5880 5881 5882 5883 5884 5884 5884 5885 5884 5884 5883 5883 5882 5881 5880 5879 5879 5878 5877 5876 5875 5874 5873 5872 5871 5870 5869
5859 5859 5859 5859 5860 5861 5861 5862 5863 5863 5864 5865 5866 5867 5868 5870 5871 5872 5874 5875 5876 5877 5879 5880 5881 5882 5883 5883 5884 5884 5884 5884 5883 5883 5882 5882 5881 5880 5879 5879 5878 5877 5876 5875 5874 5873 5872 5871 5870
5857 5857 5857 5857 5858 5859 5860 5860 5861 5862 5862 5863 5864 5865 5866 5868 5869 5870 5872 5873 5874 5876 5877 5878 5879 5880 5881 5882 5882 5883 5883 5884 5883 5883 5882 5882 5881 5881 5880 5879 5879 5878 5877 5876 5875 5874 5873 5872 5871
5855 5856 5856 5856 5856 5857 5857 5858 5860 5860 5860 5861 5862 5863 5864 5865 5867 5868 5870 5871 5873 5874 5875 5877 5878 5879 5880 5881 5881 5882 5883 5883 5883 5883 5883 5882 5882 5881 5881 5880 5879 5879 5878 5877 5876 5875 5874 5873 5872
5853 5854 5855 5855 5855 5855 5855 5856 5858 5858 5858 5859 5860 5861 5862 5864 5865 5867 5868 5870 5871 5872 5873 5875 5876 5877 5878 5879 5880 5881 5882 5882 5883 5883 5883 5882 5882 5882 5881 5880 5880 5879 5879 5878 5877 5876 5875 5874 5873
5851 5851 5853 5853 5853 5853 5854 5854 5855 5855 5856 5857 5858 5859 5860 5862 5863 5865 5866 5868 5869 5871 5872 5873 5874 5876 5877 5878 5879 5880 5881 5881 5882 5882 5882 5882 5882 5882 5881 5881 5880 5879 5879 5878 5877 5876 5875 5874 5873
5849 5849 5850 5851 5851 5851 5852 5852 5853 5853 5854 5855 5856 5857 5859 5860 5862 5863 5865 5866 5868 5869 5870 5871 5872 5874 5875 5876 5877 5878 5879 5880 5881 5881 5881 5881 5881 5881 5881 5880 5880 5879 5879 5878 5877 5876 5875 5874 5873
5847 5848 5848 5849 5849 5850 5850 5853 5851 5852 5852 5853 5854 5856 5857 5859 5860 5861 5863 5865 5866 5867 5868 5870 5871 5872 5873 5875 5876 5877 5878 5878 5879 5880 5880 5880 5880 5880 5880 5880 5879 5879 5878 5877 5876 5875 5874 5874 5873
5844 5845 5846 5847 5847 5848 5848 5852 5849 5850 5851 5852 5853 5854 5856 5857 5858 5860 5861 5863 5864 5866 5866 5868 5869 5870 5871 5872 5874 5875 5876 5877 5877 5878 5878 5879 5879 5879 5878 5878 5878 5877 5877 5876 5875 5874 5873 5873 5872